sat.trackr.live / text

‹ back to catalog

YAOGAN-39 04A

NORAD 58141 · 2023-163A

PAYLOAD ACTIVE UNKNOWN

§ Identity

Operator
Country
PRC
Launch date
2023-10-23
Launch site
XICLF
Launch vehicle
Mass (kg)
RCS (m²)

External: N2YO · Heavens-Above · Gunter

§ Orbital elements

Epoch: 2026-05-25T05:26:13.693632Z

Period
94.54 min
Inclination
34.9996°
Eccentricity
0.0005135
Mean motion
15.23106979 rev/d
Perigee alt
492.9 km
Apogee alt
500.0 km
Semi-major
6,874.6 km
B*
2.8647e-4
RAAN
129.1376°
Arg perigee
175.3061°
Mean anomaly
184.7702°
Rev number
14,407

§ Raw data

YAOGAN-39 04A1 58141U 23163A   26145.22654738  .00006895  00000+0  28647-3 0  99962 58141  34.9996 129.1376 0005135 175.3061 184.7702 15.23106979144075

JSON: /api/v1/satellites/58141 · /tle

For live sub-satellite position, see the globe view (requires WebGL).

§ Visibility from observer

Set your observer location to see the next 7 days of passes ≥ 10°. The values pass through the URL so the page stays shareable.

No JS? Fill the form by hand. The geolocation button needs JavaScript.